Location: 5810 Zion Rd, Cleves, OH 45002, USA
(39.1922°N, 84.7113°W)
Time: 15:03:53
(UTC-05:00)

Courier 1B Rocket - Pass Details

Date: 07 December 2019
Orbit: 920 x 1202 km, 28.2° (Epoch: 28 January)

Event Time Altitude Azimuth Distance (km) Brightness Sun altitude
Rises 13:25:19 0° 255° (WSW) 3,546 8.3 26.8°
Reaches altitude 10° 13:29:39 10° 227° (SW) 2,607 8.3 26.6°
Maximum altitude 13:32:06 12° 204° (SSW) 2,444 9.0 26.5°
Drops below altitude 10° 13:34:33 10° 181° (S) 2,632 8.8 26.4°
Sets 13:39:00 0° 153° (SSE) 3,619 8.6 26.1°
